Location: *
(13.2257°S, 48.7193°W)
Time: 03:17:57
(UTC+00:00)

CZ-4C R/B - Visible Passes

Search period start: 12 May 2026 00:00
Search period end: 22 May 2026 00:00
Orbit: 476 x 1501 km, 63.4° (Epoch: 11 May)

Date Brightness Start Highest point End Pass type
(mag) Time Alt. Az. Time Alt. Az. Time Alt. Az.
12 May 6.3 07:51:51 10° NE 07:56:00 14° ENE 08:00:08 10° E visible
13 May 5.2 08:17:36 10° N 08:25:28 33° ENE 08:33:11 10° SE visible
13 May 4.9 21:25:24 10° W 21:26:55 12° WNW 21:28:25 10° NW visible
14 May 3.9 08:45:54 10° NNW 08:55:02 67° ENE 09:03:49 10° SSE visible
15 May 5.6 07:29:45 10° NNE 07:36:28 23° ENE 07:43:06 10° ESE visible
16 May 4.3 07:57:14 10° N 08:05:59 49° ENE 08:14:28 10° SE visible
17 May 5.8 06:42:39 10° NE 06:47:29 15° ENE 06:52:17 10° ESE visible
17 May 3.4 08:26:17 10° NNW 08:35:35 86° WSW 08:44:27 10° SSE visible
18 May 4.8 07:08:52 10° N 07:16:57 35° ENE 07:24:51 10° SE visible
18 May 3.7 08:56:38 10° NW 09:05:17 44° WSW 09:13:29 10° S visible
19 May 3.6 07:37:19 10° NNW 07:46:30 72° ENE 07:55:20 10° SSE visible
20 May 5.1 06:20:53 10° NNE 06:27:56 25° ENE 06:34:53 10° ESE visible
20 May 3.4 08:07:04 10° NW 08:16:09 60° WSW 08:24:47 10° SSE visible
21 May 4.0 06:48:35 10° N 06:57:27 53° ENE 07:06:02 10° SE visible
21 May 4.0 08:38:14 10° WNW 08:45:56 29° WSW 08:53:13 10° S visible
